Location: Prairie Dale
(45.6972°N, 104.5033°W)
Time: 22:43:56
(UTC+00:00)

ESTCUBE 1 - Pass Details

Date: 02 July 2022
Orbit: 645 x 657 km, 97.9° (Epoch: 16 August)

Event Time Altitude Azimuth Distance (km) Brightness Sun altitude
Exits shadow 05:43:43 23° 216° (SW) 1,359 ? -19.0°
Maximum altitude 05:45:43 35° 263° (W) 1,054 ? -19.1°
Drops below altitude 10° 05:49:49 10° 330° (NNW) 2,059 ? -19.3°
Sets 05:52:13 0° 339° (NNW) 2,976 ? -19.5°
